ONEWEB-0688, 61596

Orbit data source: Space-Track

ONEWEB-0688, 61596 is a payload satellite owned by Eut. One Web (UK) in LEO that was launched on Sun, 20 Oct 2024 UTC via an FALCON 9 launch vehicle from the Air Force Western Test Range (AFWTR). Payload-class satellites include a variety of spacecraft equipped with specific instruments for various scientific and technological missions. These include communications satellites like Starlink; space stations such as the ISS; scientific satellites like the Hubble; Earth observation satellites from companies like Planet Labs, Umbra, and HawkEye 360; GPS; miniature CubeSats for education and research; and military/defense satellites.

Loading next visibility...
Identifier
61596, 2024-188C
Orbit
LEO
Last TLE update
15 hours ago
Origin
Manufacturer
One Web
Mission
Operational Commercial Communications
Bus & Motor
ARROW, Unknown motor
Mass
148 kg wet, ~140 kg dry
Launch date (UTC)
2024-10-20 (9 months ago)
Launch vehicle
FALCON 9
Launch site
Air Force Western Test Range (AFWTR)
Object type
Payload
Rocket body
Debris
Shape & HBR
Trap Box + 2 Pan, 5 m
Radar Cross Section
2.032 m², Large (>1 m²)

Expand to show TLE details & history

TLE from 15 hours ago
0 ONEWEB-0688
1 61596U 24188C   25188.73710487 -.00010251  00000-0 -26401-1 0  9996
2 61596  87.9062  74.4859 0001576 133.4933 226.6330 13.17814277 40538
Epoch: 2025-07-07T17:41Z
TLE epoch observation values (Epoch: 2025-07-07T17:41:25.86Z)
Latitude
-0.00002°
Longitude
-116.814°
Altitude
1,196.798 km
Speed
7.255 km/s
True Right ascension
04h 57m 56s
True Declination
0° 00' 00"
Sunlit
Object was in daylight at epoch
Visualization orbit readout
Latitude
-13.83612°
Longitude
-117.44789°
Altitude
1,199.839 km
Speed
7.253 km/s
Apparent Right ascension
06h 14m 51s
Apparent Declination
-27° 48' 40"
Sunlit
Object is in daylight
Visualization observer readout
Local Sidereal Time
20:17:36
Azimuth
73.909° E
Elevation
-61.977°
Doppler factor
1
Orbital elements
Apogee altitude
1,191.382 km
Perigee altitude
1,188.996 km
Semi-major axis
7,568.326 km
Eccentricity
0.00016
Inclination
87.9062°
RAAN
74.4859°
Arg. of periapsis
133.4933°
True anomaly
Unknown
Mean anomaly
226.633°
Eccentric anomaly
Unknown
Mean motion
3.29643 °/min
Orbital period
109.21 mins
BSTAR
-0.026401
Loading maneuver chart data...
Loading SW <> Apogee altitude chart data...
Loading historical data...
Loading historical data...
Loading historical data...
Loading historical data...
Loading historical data...
Loading historical data...
Loading historical data...

ONEWEB-0688 Visibility forecast

Observer location: undefined°, undefined°

Span
Click to sort rows by Start time (UTC) header in descending order
Start Az.
Max El. time (UTC)
Max El. Az.
Max El.
End time (UTC)
End Az.
11 mins2025-07-08 15:40:55.620Z129.239° SE2025-07-08 15:45:55.620Z79.036° E25.68°2025-07-08 15:51:55.620Z22.303° NNE
12 mins2025-07-08 17:29:55.620Z207.861° SW2025-07-08 17:34:55.620Z274.025° WNW37.358°2025-07-08 17:41:55.620Z349.98° N
8 mins2025-07-09 03:07:55.620Z41.249° NE2025-07-09 03:10:55.620Z71.084° E19.998°2025-07-09 03:15:55.620Z118.874° SE
12 mins2025-07-09 04:55:55.620Z350.692° N2025-07-09 05:00:55.620Z289.26° WNW42.242°2025-07-09 05:07:55.620Z194.501° SSW
|